Weather History for Cleveland Burke, OH

Change the Weather History Date:

Wednesday, May 15, 2013

  Actual Average Record
Temperature  
Mean Temperature 67 °F -  
Max Temperature 77 °F 65 °F 91 °F (2007)
Min Temperature 59 °F 50 °F 33 °F (1997)
Cooling Degree Days 2    
Growing Degree Days 17 (Base 50)    
Moisture  
Dew Point 52 °F    
Average Humidity 59    
Maximum Humidity 68    
Minimum Humidity 47    
Precipitation  
Precipitation 0.01 in - - ()
Sea Level Pressure  
Sea Level Pressure 29.72 in    
Wind  
Wind Speed 13 mph (SW)    
Max Wind Speed 20 mph    
Max Gust Speed 28 mph    
Visibility 10 miles    
Events Thunderstorm    
Averages and records for this station are not official NWS values.
T = Trace of Precipitation, MM = Missing Value Source: NWS Daily Summary

Daily Weather History Graph

Daily Weather History Graph

Search for Another Location

Airport:

Trip Planner

Search our weather history database for the weather conditions in past years. The results will help you decide how hot, cold, wet, or windy it might be!

Date:

Astronomy

May. 15, 2013 Rise Set
Actual Time 6:07 AM EDT 8:39 PM EDT
Civil Twilight 5:35 AM EDT 9:11 PM EDT
Nautical Twilight 4:56 AM EDT 9:50 PM EDT
Astronomical Twilight 4:12 AM EDT 10:35 PM EDT
Moon 10:42 AM EDT (5/15) 12:24 AM EDT (5/15)
Length of Visible Light 15h 35m
Length of Day
14h 32m
Waxing Crescent, 26% of the Moon is Illuminated
May 15
Waxing Crescent
May 18
First Quarter
May 25
Full
May 31
Last Quarter
Jun 8
New

Hourly Weather History & Observations

Time (EDT) Temp. Dew Point Humidity Pressure Visibility Wind Dir Wind Speed Gust Speed Precip Events Conditions
12:53 AM 60.1 °F 39.9 °F 47% 29.77 in 10.0 mi SSE 19.6 mph 27.6 mph N/A   Partly Cloudy
1:53 AM 59.0 °F 41.0 °F 51% 29.76 in 10.0 mi SSE 16.1 mph 21.9 mph N/A   Mostly Cloudy
2:53 AM 60.1 °F 41.0 °F 49% 29.75 in 10.0 mi SSE 13.8 mph - N/A   Partly Cloudy
3:53 AM 60.1 °F 44.1 °F 55% 29.73 in 10.0 mi SSE 9.2 mph 20.7 mph N/A   Clear
4:53 AM 60.1 °F 46.0 °F 60% 29.65 in 10.0 mi SSE 19.6 mph 25.3 mph N/A   Partly Cloudy
5:53 AM 63.0 °F 50.0 °F 63% 29.68 in 10.0 mi South 10.4 mph - N/A   Clear
6:53 AM 64.9 °F 54.0 °F 68% 29.66 in 10.0 mi South 12.7 mph - N/A   Clear
7:53 AM 68.0 °F 55.0 °F 63% 29.66 in 10.0 mi SSW 9.2 mph 20.7 mph N/A   Clear
8:53 AM 73.0 °F 55.9 °F 55% 29.66 in 10.0 mi SW 17.3 mph 25.3 mph N/A   Partly Cloudy
9:31 AM 71.6 °F 57.2 °F 60% 29.69 in 10.0 mi SW 16.1 mph 24.2 mph N/A Thunderstorm Thunderstorm
9:53 AM 71.1 °F 57.9 °F 63% 29.68 in 10.0 mi SW 17.3 mph - 0.01 in Thunderstorm Thunderstorm
10:01 AM 71.6 °F 57.2 °F 60% 29.68 in 10.0 mi SW 13.8 mph 21.9 mph N/A   Scattered Clouds
10:53 AM 75.0 °F 57.9 °F 55% 29.68 in 10.0 mi SW 15.0 mph 26.5 mph N/A   Scattered Clouds
11:53 AM 75.0 °F 59.0 °F 57% 29.69 in 8.0 mi WSW 12.7 mph - N/A   Clear
12:53 PM 75.9 °F 60.1 °F 58% 29.70 in 10.0 mi WSW 11.5 mph - N/A   Clear
1:53 PM 69.1 °F 57.9 °F 68% 29.73 in 10.0 mi West 11.5 mph - N/A   Clear
2:53 PM 70.0 °F 57.9 °F 65% 29.74 in 10.0 mi West 11.5 mph - N/A   Clear
3:53 PM 71.1 °F 57.0 °F 61% 29.73 in 10.0 mi West 12.7 mph - N/A   Partly Cloudy
4:53 PM 68.0 °F 57.0 °F 68% 29.73 in 10.0 mi West 9.2 mph - N/A   Clear
5:53 PM 71.1 °F 55.9 °F 59% 29.73 in 10.0 mi WSW 5.8 mph - N/A   Clear
6:53 PM 66.0 °F 53.1 °F 63% 29.74 in 10.0 mi NNE 4.6 mph - N/A   Partly Cloudy
7:53 PM 68.0 °F 53.1 °F 59% 29.74 in 10.0 mi SW 4.6 mph - N/A   Partly Cloudy
8:53 PM 68.0 °F 46.9 °F 47% 29.75 in 10.0 mi WSW 6.9 mph - N/A   Partly Cloudy
9:53 PM 62.1 °F 46.0 °F 56% 29.77 in 10.0 mi SW 5.8 mph - N/A   Scattered Clouds
10:53 PM 63.0 °F 46.9 °F 56% 29.78 in 10.0 mi WSW 5.8 mph - N/A   Scattered Clouds
11:53 PM 63.0 °F 48.0 °F 58% 29.76 in 10.0 mi SW 5.8 mph - N/A   Clear